Hourly Data Report for November 04, 2019

OTTAWA INTL A
ONTARIO
Current Station Operator: NAVCAN

45°19'00.000" N
75°40'00.000" W
114.90 m
6106001
71628
YOW

Download Data

Hourly Data (November 2019)
Hourly Data Report for November 4, 2019
TIME Temp Definition
°C
Dew Point Definition
°C
Rel Hum Definition
%
Wind Dir Definition
10's deg

Wind Spd Definition
km/h
Visibility Definition
km
Stn Press Definition
kPa
Hmdx Definition


Wind Chill Definition


Weather Definition


00:00 -0.4 -1.8 90 24 4 24.1 100.71   -2 LegendNANA
01:00 -1.2 -2.2 93 21 10 24.1 100.77   -5 Clear
02:00 -1.6 -2.3 94 20 7 24.1 100.82   -4 LegendNANA
03:00 -1.6 -2.4 94 20 8 24.1 100.86   -5 LegendNANA
04:00 -2.0 -2.8 94 18 9 24.1 100.87   -5 Clear
05:00 -2.9 -3.8 93 15 4 24.1 100.89   -4 LegendNANA
06:00 -2.9 -3.4 96 11 4 24.1 100.87   -4 LegendNANA
07:00 -3.5 -4.1 95 11 9 24.1 100.86   -7 Mostly Cloudy
08:00 -1.6 -2.5 93 14 8 24.1 100.91   -5 LegendNANA
09:00 0.0 -1.5 89 15 8 24.1 100.90   -3 LegendNANA
10:00 1.6 -0.9 84 12 15 24.1 100.84     Mostly Cloudy
11:00 2.4 -0.1 84 13 12 16.1 100.80     Rain
12:00 3.4 1.4 87 12 18 24.1 100.66     LegendNANA
13:00 4.7 1.6 80 13 16 24.1 100.53     Mostly Cloudy
14:00 6.0 1.0 70 18 23 16.1 100.49     Rain
15:00 6.4 2.4 75 15 14 24.1 100.37     LegendNANA
16:00 7.7 0.3 59 14 28 24.1 100.22     Mostly Cloudy
17:00 6.2 -0.1 64 15 14 24.1 100.29     LegendNANA
18:00 6.3 0.2 65 13 14 24.1 100.28     LegendNANA
19:00 6.4 -0.3 62 16 16 24.1 100.25     Cloudy
20:00 6.8 -1.0 58 16 20 24.1 100.20     LegendNANA
21:00 7.8 -0.8 54 18 19 24.1 100.19     LegendNANA
22:00 8.8 -0.7 51 19 23 24.1 100.18     Cloudy
23:00 9.4 0.2 52 19 21 24.1 100.19     LegendNANA

Notes on Data Quality.

Legend

  • E = Estimated
  • M = Missing
  • NA = Not Available*
  • [empty] = Indicates an unobserved value
Date modified: